This demonstration page uses our WeatherBlox Daily Observations layout. Learn more.

Left ArrowRight Arrow

41.86663, -103.66717

Hourly Observations for September 9, 2020

Temp ( °F °C ) Dew Point ( °F °C ) Humidity (%) Winds ( mph kmh ) Pressure ( in mb ) Visibility ( mi km ) Precip ( " mm )
12:46 am 00:46 Cloudy 34 1.1 33 0.6 97 97 Calm 30.5 1033 10 16.0934 0.001 0.001
12:53 am 00:53 Cloudy 34 1.1 33 0.6 97 97 Calm 30.45 1031 10 16.0934 0.001 0.001
1:07 am 01:07 Cloudy 35 1.7 32 0 89 89 Calm 30.49 1032 10 16.0934 0 0
1:38 am 01:38 Cloudy 34 1.1 33 0.6 97 97 S 3 6 30.51 1033 10 16.0934 0 0
1:53 am 01:53 Cloudy 34 1.1 33 0.6 97 97 SSE 6 9 30.46 1032 10 16.0934 0 0
2:33 am 02:33 Cloudy 34 1.1 33 0.6 97 97 SSE 7 11 30.5 1033 10 16.0934 0 0
2:41 am 02:41 Cloudy 34 1.1 33 0.6 97 97 S 7 11 30.5 1033 10 16.0934 0 0
2:49 am 02:49 Cloudy 34 1 34 1 100 100 S 5 7 30.51 1033 10 16.0934 0 0
2:53 am 02:53 Cloudy 34 1.1 33 0.6 97 97 S 5 7 30.45 1031 10 16.0934 0 0
3:27 am 03:27 Cloudy 34 1.1 33 0.6 97 97 S 6 9 30.5 1033 10 16.0934 0 0
3:53 am 03:53 Cloudy 34 1.1 32 0 92 92 S 6 9 30.44 1031 10 16.0934 0 0
4:12 am 04:12 Cloudy 34 1.1 32 0 92 92 SSW 5 7 30.48 1032 10 16.0934 0 0
4:53 am 04:53 Mostly Cloudy 34 1.1 31 -0.6 89 89 Calm 30.44 1031 10 16.0934 0 0
5:05 am 05:05 Mostly Cloudy 34 1.1 31 -0.6 89 89 Calm 30.48 1032 10 16.0934 0 0
5:20 am 05:20 Cloudy 34 1.1 32 0 92 92 SW 5 7 30.48 1032 10 16.0934 0 0
5:53 am 05:53 Cloudy 34 1.1 32 0 92 92 S 3 6 30.44 1031 10 16.0934 0 0
6:53 am 06:53 Cloudy 34 1.1 31 -0.6 89 89 Calm 30.46 1032 10 16.0934 0 0
7:07 am 07:07 Cloudy 35 1.7 31 -0.6 85 85 Calm 30.5 1033 10 16.0934 0 0
7:49 am 07:49 Cloudy 36 2 30 -1 81 81 Calm 30.5 1033 10 16.0934 0 0
7:53 am 07:53 Cloudy 35 1.7 30 -1.1 82 82 Calm 30.48 1032 10 16.0934 0 0
8:53 am 08:53 Cloudy 36 2.2 31 -0.6 82 82 Calm 30.48 1032 10 16.0934 0 0
9:32 am 09:32 Cloudy 37 2.8 32 0 82 82 S 3 6 30.5 1033 10 16.0934 0 0
9:41 am 09:41 Cloudy 37 2.8 32 0 82 82 Calm 30.5 1033 10 16.0934 0 0
9:53 am 09:53 Cloudy 37 2.8 32 0 82 82 Calm 30.48 1032 10 16.0934 0 0
10:53 am 10:53 Cloudy 39 3.9 32 0 76 76 Calm 30.49 1033 10 16.0934 0 0
11:00 am 11:00 Cloudy 38 3.3 31 -0.6 76 76 Calm 30.51 1033 10 16.0934 0 0
11:53 am 11:53 Cloudy 39 3.9 32 0 76 76 VRB 3 6 30.5 1033 10 16.0934 0 0
12:40 pm 12:40 Cloudy 40 4.4 31 -0.6 70 70 Calm 30.48 1032 10 16.0934 0 0
12:53 pm 12:53 Cloudy 41 5 31 -0.6 67 67 ESE 5 7 30.48 1032 10 16.0934 0 0
1:53 pm 13:53 Cloudy 41 5 32 0 70 70 S 8 13 30.47 1032 10 16.0934 0 0
2:53 pm 14:53 Cloudy 42 5.6 31 -0.6 65 65 VRB 3 6 30.45 1031 10 16.0934 0 0
3:53 pm 15:53 Mostly Cloudy 45 7.2 32 0 61 61 WSW 6 9 30.43 1030 10 16.0934 0 0
4:09 pm 16:09 Cloudy 44 6.7 32 0 63 63 VRB 3 6 30.4 1029 10 16.0934 0 0
4:16 pm 16:16 Cloudy 45 7.2 32 0 61 61 WNW 5 7 30.39 1029 10 16.0934 0 0
4:53 pm 16:53 Cloudy 45 7.2 32 0 61 61 Calm 30.42 1030 10 16.0934 0 0
5:53 pm 17:53 Partly Cloudy 45 7.2 31 -0.6 58 58 SW 3 6 30.41 1030 10 16.0934 0 0
6:53 pm 18:53 Sunny 44 6.7 32 0 63 63 Calm 30.42 1030 10 16.0934 0 0
7:53 pm 19:53 Clear 42 5.6 32 0 68 68 ESE 3 6 30.43 1031 10 16.0934 0 0
8:53 pm 20:53 Clear 38 3.3 33 0.6 83 83 SE 3 6 30.46 1032 10 16.0934 0 0
9:53 pm 21:53 Clear 37 2.8 32 0 82 82 Calm 30.47 1032 10 16.0934 0 0
10:53 pm 22:53 Clear 35 1.7 32 0 89 89 Calm 30.47 1032 10 16.0934 0 0
11:53 pm 23:53 Clear 34 1.1 32 0 92 92 ENE 5 7 30.45 1031 10 16.0934 0 0

Powered by AerisWeather